Location: Shannon
(40.5500°S, 175.4167°E)
Time: 22:45:19
(UTC+00:00)

ACS3 Solar Sail - Visible Passes

Search period start: 15 February 2026 00:00
Search period end: 25 February 2026 00:00
Orbit: 899 x 968 km, 97.2° (Epoch: 14 February)

Date Brightness Start Highest point End Pass type
(mag) Time Alt. Az. Time Alt. Az. Time Alt. Az.
15 Feb 3.9 12:02:28 15° ESE 12:02:43 15° ESE 12:05:52 10° SSE visible
15 Feb 2.4 13:46:14 48° SSW 13:46:14 48° SSW 13:50:30 10° SSW visible
16 Feb 3.7 12:15:11 19° ESE 12:15:11 19° ESE 12:18:58 10° SSE visible
16 Feb 2.6 13:58:57 42° SSW 13:58:57 42° SSW 14:02:55 10° SSW visible
17 Feb 3.5 12:27:52 23° SE 12:27:52 23° SE 12:31:51 10° SSE visible
17 Feb 2.8 14:11:38 34° SW 14:11:38 34° SW 14:15:14 10° SSW visible
18 Feb 3.3 12:40:32 28° SE 12:40:32 28° SE 12:44:35 10° S visible
18 Feb 3.1 14:24:17 28° SW 14:24:17 28° SW 14:27:28 10° SSW visible
19 Feb 3.1 12:53:10 33° SE 12:53:10 33° SE 12:57:12 10° S visible
19 Feb 3.3 14:36:55 22° SW 14:36:55 22° SW 14:39:35 10° SSW visible
20 Feb 3.0 13:05:46 37° SSE 13:05:46 37° SSE 13:09:42 10° S visible
20 Feb 3.5 14:49:31 18° SW 14:49:31 18° SW 14:51:34 10° SW visible
21 Feb 2.9 13:18:21 39° S 13:18:21 39° S 13:22:09 10° S visible
21 Feb 3.8 15:02:06 14° SW 15:02:06 14° SW 15:03:21 10° SW visible
22 Feb 4.1 11:47:09 12° SE 11:47:09 12° SE 11:49:09 10° SE visible
22 Feb 2.9 13:30:55 38° S 13:30:55 38° S 13:34:30 10° S visible
22 Feb 4.0 15:14:39 10° SW 15:14:39 10° SW 15:14:49 10° SW visible
23 Feb 4.0 11:59:41 15° SE 11:59:41 15° SE 12:02:21 10° SSE visible
23 Feb 3.0 13:43:26 35° SSW 13:43:26 35° SSW 13:46:46 10° SSW visible
24 Feb 3.8 12:12:12 19° SE 12:12:12 19° SE 12:15:11 10° SSE visible
24 Feb 3.2 13:55:56 30° SSW 13:55:56 30° SSW 13:58:58 10° SSW visible
